Location: La Ronge
(55.1000°N, 105.3000°W)
Time: 05:58:19
(UTC-06:00)

Daily predictions for brighter satellites

Satellite Brightness Start Highest point End
(mag) Time Altitude Azimuth Time Altitude Azimuth Time Altitude Azimuth
CZ-2C R/B 4.1 00:04:03 28° E 00:05:24 33° ENE 00:09:50 10° N
Cosmos 1953 3.2 00:08:21 40° ENE 00:08:21 40° ENE 00:11:36 10° NNE
Spot 2 4.1 00:03:43 10° NNE 00:07:47 68° WNW 00:08:04 65° W
Cosmos 1408 Rocket 3.6 00:03:51 10° NNW 00:08:19 69° W 00:08:33 67° WSW
Cosmos 1743 Rocket 3.6 00:05:40 10° N 00:10:08 69° ENE 00:10:15 69° E
H-2A R/B 3.9 00:07:35 10° NNE 00:10:29 27° ENE 00:10:29 27° ENE
Cosmos-2242 3.6 00:12:09 45° ENE 00:12:09 45° ENE 00:15:50 10° NNE
Cosmos 1378 4.0 00:09:17 10° NNW 00:12:35 42° WNW 00:12:35 42° WNW
In-Cosmos 22 4.1 00:10:36 10° NNW 00:16:03 76° W 00:17:05 58° SSW
Cosmos 921 Rocket 3.0 00:15:37 10° NNW 00:20:01 76° W 00:20:01 76° W
Cosmos 2263 Rocket 3.6 00:16:15 10° NW 00:20:38 24° WSW 00:21:38 23° WSW
Cosmos 2219 Rocket 3.6 00:21:35 23° E 00:21:35 23° E 00:25:34 10° NE
Meteor 2-12 Rocket 4.3 00:20:26 54° S 00:21:56 81° E 00:28:07 10° NNE
Cosmos 1805 4.0 00:23:05 46° NE 00:23:05 46° NE 00:26:11 10° NNE
Cosmos 1655 Rocket 4.3 00:16:43 10° N 00:23:02 58° ENE 00:24:55 42° SE
Cosmos 1758 3.8 00:25:32 53° NE 00:25:32 53° NE 00:28:53 10° NNE
Cosmos 2322 3.6 00:29:05 62° S 00:29:56 73° ESE 00:35:40 10° NE
Cosmos 2322 Rocket 2.7 00:26:55 24° WSW 00:30:15 55° NW 00:35:49 10° NNE
Cosmos 2297 4.5 00:25:51 10° NNW 00:31:26 48° NE 00:34:04 29° ESE
Cosmos 540 Rocket 4.3 00:31:10 27° WSW 00:33:37 46° NW 00:38:36 10° NNE
Cosmos 2333 Rocket 3.7 00:33:47 23° ESE 00:33:47 23° ESE 00:38:05 10° NE
Cosmos 1766 3.8 00:36:53 52° WNW 00:36:53 52° WNW 00:40:29 10° N
Cosmos 304 Rocket 3.8 00:36:49 63° E 00:36:49 63° E 00:41:23 10° NNE
Cosmos 2237 Rocket 3.8 00:37:53 21° E 00:37:53 21° E 00:42:00 10° NE
Cosmos 371 Rocket 3.9 00:37:22 37° WSW 00:38:49 51° NW 00:43:34 10° NNE
Cosmos 1766 Rocket 4.5 00:35:58 10° NNW 00:40:09 39° W 00:40:15 39° W
Cosmos 2034 Rocket 4.2 00:40:39 41° SW 00:42:43 61° WNW 00:48:53 10° N
Terra 4.3 00:41:44 10° W 00:43:08 11° W 00:44:32 10° WNW
Cosmos 1328 4.4 00:39:23 10° N 00:42:58 51° NE 00:42:58 51° NE
Cosmos 2058 3.8 00:40:09 10° N 00:44:08 40° ENE 00:44:09 40° ENE
Cosmos 1680 Rocket 3.7 00:46:34 54° ESE 00:46:41 54° ESE 00:51:53 10° NNE
GEOS 3 Rocket 4.3 00:42:39 10° NE 00:47:39 53° NNW 00:52:29 11° WSW
Helios 1A Rocket 4.1 00:43:58 10° NNE 00:47:01 32° ENE 00:47:01 32° ENE
COSMOS 2428 2.8 00:49:05 56° SE 00:49:28 57° ESE 00:55:04 10° NE
Cosmos 1544 4.0 00:52:50 47° NNE 00:52:50 47° NNE 00:55:35 10° NNE
CZ-4B R/B 2.8 00:53:40 38° NW 00:53:40 38° NW 00:56:14 10° NNW
Cosmos 2151 3.1 00:48:25 10° N 00:52:29 67° NE 00:52:29 67° NE
Cosmos 1900 4.4 00:53:06 62° ESE 00:53:06 62° ESE 00:57:46 10° NE
Cosmos 1092 Rocket 4.3 00:46:39 10° NNW 00:52:53 59° W 00:54:25 46° SW
Cosmos 1689 Rocket 4.2 00:58:16 26° NW 00:58:16 26° NW 00:59:58 10° NNW
Cosmos 1818 3.6 00:51:47 10° NW 00:57:18 79° NE 00:58:44 51° ESE
Cosmos 1805 Rocket 4.1 00:55:33 10° N 00:59:53 49° ENE 01:00:07 49° E
Cosmos 1634 Rocket 3.9 00:59:36 56° S 01:01:06 84° E 01:07:28 10° NNE
Cosmos 2278 Rocket 2.1 00:59:24 10° NW 01:05:05 73° WSW 01:05:46 65° SSW
Cosmos 1674 3.7 01:03:56 10° NNW 01:06:44 40° NW 01:06:44 40° NW
Cosmos 2237 4.1 01:07:30 64° S 01:08:22 79° ESE 01:14:07 10° NE
Cosmos 1842 Rocket 3.5 01:14:36 82° N 01:14:36 82° N 01:18:50 10° NNE
Cosmos 2056 Rocket 3.4 01:09:51 10° NNW 01:15:06 68° WSW 01:15:26 66° SW
Cosmos 923 Rocket 3.9 01:16:02 65° SW 01:16:47 79° WNW 01:22:04 10° NNE
Lacrosse 4 Rocket 1.5 01:17:20 82° NNE 01:17:20 82° NNE 01:21:41 10° NE
Cosmos 2279 Rocket 4.0 01:18:24 54° SSE 01:19:49 72° E 01:26:02 10° NNE
Cosmos 1371 Rocket 4.3 01:16:06 10° NW 01:21:02 48° WSW 01:21:02 48° WSW
SL-16 R/B 3.7 01:21:00 11° W 01:25:52 33° NW 01:30:59 10° NNE
Cosmos 1844 4.4 01:23:21 10° NW 01:28:31 37° WSW 01:28:31 37° WSW
ALOS 2 4.4 01:31:52 21° W 01:31:52 21° W 01:34:55 10° NW
Cosmos 1666 Rocket 3.5 01:28:38 10° N 01:32:59 72° ENE 01:32:59 72° ENE
Cosmos 1844 Rocket 3.9 01:29:27 10° NW 01:33:48 27° W 01:33:48 27° W
Cosmos 2266 Rocket 4.1 01:28:11 10° N 01:34:34 74° ENE 01:36:41 45° SSE
Cosmos 1733 3.6 01:36:33 61° NNW 01:36:33 61° NNW 01:39:56 10° N
Cosmos 1703 3.7 01:32:05 10° N 01:35:48 57° ENE 01:35:48 57° ENE
CZ-2C R/B 2.6 01:31:49 10° NNE 01:37:22 85° WNW 01:38:26 60° SSW
ATLAS CENTAUR R/B 2.9 01:33:47 10° NW 01:38:15 40° NNE 01:42:23 10° E
Cosmos 1633 Rocket 3.1 01:34:11 10° N 01:38:38 69° ENE 01:38:50 68° E
PSLV R/B 4.0 01:42:33 75° WNW 01:42:33 75° WNW 01:46:34 10° NNW
Cosmos 2360 Rocket 3.1 01:40:33 26° W 01:43:17 45° NW 01:48:45 10° NNE
ATLAS 3B R/B 3.3 01:41:56 40° SSE 01:43:46 47° ESE 01:50:44 10° NE
Cosmos 1953 3.9 01:44:06 25° WNW 01:44:23 25° WNW 01:47:49 10° N
CZ-2C R/B 3.3 01:45:07 48° W 01:45:09 48° W 01:50:00 10° NNW
Cosmos 2026 Rocket 4.5 01:39:37 10° NNW 01:45:23 43° W 01:46:34 39° WSW
Cosmos 1933 Rocket 4.4 01:42:21 10° N 01:46:35 44° ENE 01:47:27 39° ESE
H-2A R/B 3.3 01:43:01 10° N 01:46:57 40° WNW 01:47:07 39° WNW
Cosmos 1470 3.5 01:48:19 46° WNW 01:48:19 46° WNW 01:51:56 10° N
Exosat Rocket 3.6 01:43:15 10° NNW 01:48:17 80° ENE 01:50:02 44° SE
Cosmos 2369 Rocket 3.6 01:44:02 10° NNW 01:49:13 36° NE 01:54:22 10° ESE
Meteor 1-11 4.4 01:44:21 10° NNW 01:50:01 60° W 01:50:57 53° SW
Sich 1 2.9 01:46:25 10° NNW 01:50:53 87° WSW 01:50:55 87° SW
Cosmos 1470 Rocket 4.1 01:47:29 10° N 01:51:51 51° ENE 01:52:36 46° ESE
Cosmos 2221 2.4 01:52:17 85° ESE 01:52:18 86° ESE 01:56:45 10° NNE
Cosmos 1437 Rocket 3.3 01:57:55 51° E 01:57:55 51° E 02:01:53 10° NNE
Cosmos 405 4.1 01:58:36 38° ENE 01:58:36 38° ENE 02:01:26 10° NNE
COSMOS 2455 2.9 01:58:19 52° S 01:59:31 64° SE 02:05:30 10° NE
Cosmos 2219 Rocket 2.1 02:03:18 55° SW 02:04:37 84° WNW 02:10:18 10° NNE
SL-14 R/B 4.4 02:02:34 10° NNW 02:05:21 34° WNW 02:05:21 34° WNW
PSLV R/B 4.3 02:01:40 10° NNE 02:06:20 49° E 02:07:10 44° SE
USA 81 4.3 02:10:38 50° WSW 02:11:35 57° WNW 02:16:49 10° N
Timation 1 Rocket 4.3 02:08:16 10° NW 02:14:11 64° WSW 02:15:32 50° S
Cosmos 1452 Rocket 3.7 02:10:03 10° NW 02:15:10 50° WSW 02:15:25 50° WSW
Cosmos 2322 Rocket 4.4 02:11:16 10° WNW 02:15:33 22° NNW 02:19:52 10° NNE
Cosmos 2297 4.0 02:10:12 10° NW 02:15:39 45° WSW 02:15:57 45° WSW
Cosmos 1943 Rocket 4.0 02:10:50 10° NNW 02:15:52 31° NE 02:20:52 10° E
SL-16 R/B 2.8 02:14:39 39° SSE 02:16:00 46° ESE 02:21:26 10° NE
Cosmos 1340 Rocket 4.3 02:13:17 10° N 02:16:59 33° ENE 02:18:44 23° ESE
Cosmos 2333 Rocket 2.2 02:15:47 51° SW 02:17:21 87° NW 02:23:11 10° NE
Cosmos 1626 2.3 02:13:44 10° NNW 02:17:08 71° NNW 02:17:08 71° NNW
Cosmos 2058 4.3 02:17:24 10° NNW 02:20:23 26° WNW 02:20:23 26° WNW
BREEZE-M DEB (TANK) 3.9 02:21:55 29° SE 02:21:55 29° SE 02:25:03 10° E
Cosmos 2237 Rocket 2.1 02:19:43 52° SSW 02:21:14 89° ESE 02:26:59 10° NE
Cosmos 192 4.5 02:20:29 53° SSE 02:21:18 62° ESE 02:26:13 10° NNE
Helios 1A Rocket 4.0 02:19:19 10° N 02:22:59 33° WNW 02:23:21 32° WNW
Cosmos 1980 3.6 02:24:04 49° SW 02:25:40 82° NW 02:31:23 10° NNE
NOSS 0 Rocket 3.9 02:24:19 44° SW 02:26:25 83° NW 02:32:39 10° NE
Cosmos 1151 Rocket 4.2 02:26:00 29° SE 02:27:15 35° E 02:31:15 10° NNE
COSMOS 2428 3.7 02:31:06 24° W 02:34:01 40° NW 02:39:25 10° NNE
USA 238 DEB 4.3 02:32:15 34° S 02:34:46 47° SE 02:41:27 10° NE
USA 238 4.3 02:32:21 34° S 02:34:53 46° SE 02:41:33 10° NE
BREEZE-M DEB (TANK) 4.4 02:21:39 10° W 02:36:14 45° SW 02:37:30 39° S
SeaSat 1 3.9 02:32:42 10° ESE 02:37:13 37° NE 02:41:45 10° NNW
Aureole 2 Rocket 3.0 02:37:44 56° SE 02:38:06 59° ESE 02:42:21 10° NNE
Meteor 2-1 Rocket 4.4 02:36:34 44° SW 02:38:07 60° WNW 02:43:41 10° N
Cosmos 1908 3.4 02:42:02 57° SE 02:42:30 62° E 02:46:24 10° NNE
Cosmos 1328 Rocket 3.4 02:42:41 64° S 02:43:21 89° ENE 02:47:42 10° NNE
Landsat 4 3.5 02:43:47 81° SSW 02:43:55 83° WSW 02:47:42 10° NNW
USA 161 3.7 02:45:48 20° NE 02:45:48 20° NE 02:47:11 10° NNE
Cosmos 1110 Rocket 4.2 02:42:06 10° NNW 02:47:19 71° ENE 02:51:45 15° SE
Cosmos 2278 Rocket 4.0 02:44:55 10° WNW 02:47:35 16° W 02:47:35 16° W
CZ-4C R/B 3.0 02:46:31 32° SSE 02:48:18 41° ESE 02:54:04 10° NE
SL-08 R/B 3.2 02:49:50 50° S 02:50:56 72° WSW 02:55:40 10° NNW
Cosmos 2228 Rocket 3.2 02:50:26 53° SW 02:51:20 68° WNW 02:55:56 10° N
NOSS 3-3 (A) 4.3 02:46:53 10° NW 02:54:04 69° SW 03:01:47 10° SSE
NOSS 3-3 (C) 4.3 02:46:59 10° NW 02:54:10 69° SW 03:01:54 10° SSE
CBERS-1 4.4 02:49:22 10° NNE 02:54:26 56° E 02:56:39 32° SSE
Lacrosse 4 Rocket 3.4 02:53:40 15° WNW 02:56:30 26° NNW 03:00:19 10° NNE
In-Cosmos 22 Rocket 4.4 02:53:09 10° N 02:58:28 66° ENE 03:02:31 18° SSE
Cosmos 1932 4.4 03:02:00 36° SW 03:04:45 82° SE 03:11:09 10° NE
Cosmos 1892 4.4 03:01:35 10° N 03:05:06 32° ENE 03:08:35 10° SE
Meteor 2-3 Rocket 4.1 02:59:50 10° N 03:05:35 67° ENE 03:11:03 12° SSE
Cosmos 1515 Rocket 3.5 03:06:49 50° SW 03:07:48 70° WNW 03:12:10 10° N
AQUA 4.0 03:03:29 10° NNE 03:08:16 69° ESE 03:10:15 35° S
Cosmos 1869 Rocket 3.7 03:03:49 10° N 03:08:16 76° ENE 03:10:32 28° SSE
Cosmos 1356 Rocket 3.6 03:05:23 10° N 03:09:28 68° ENE 03:11:31 28° SSE
S3M 4.1 03:07:52 26° S 03:11:34 73° E 03:17:54 10° NNE
SL-16 R/B 2.6 03:05:58 10° SSE 03:12:08 78° ENE 03:18:22 10° NNW
GRACE-1 4.5 03:13:04 50° NW 03:13:04 50° NW 03:15:27 10° N
GRACE-2 4.5 03:13:31 51° NW 03:13:31 51° NW 03:15:53 10° N
Abrixas rocket 4.3 03:17:14 17° SE 03:17:14 17° SE 03:18:29 10° ESE
CZ-2C R/B 4.4 03:12:55 10° N 03:17:00 22° NW 03:19:57 14° W
ATLAS CENTAUR R/B 1.4 03:13:04 10° NW 03:17:35 60° SW 03:20:01 24° SSE
Coronas F rocket 1.9 03:18:30 10° N 03:21:09 52° ENE 03:21:24 50° E
IRS-P3 4.1 03:16:47 10° NNE 03:22:09 75° WNW 03:24:37 33° SSW
CZ-2D R/B 3.3 03:17:21 10° NNE 03:22:17 37° E 03:26:44 12° SSE
Cosmos 1386 Rocket 4.5 03:19:38 10° NNW 03:26:03 86° WSW 03:31:14 16° S
Cosmos 1726 2.7 03:24:53 29° SSE 03:26:29 52° E 03:30:09 10° NNE
Cosmos 1745 Rocket 4.0 03:21:32 10° NNW 03:27:51 68° W 03:32:02 22° S
Cosmos 2360 Rocket 4.4 03:24:43 10° WNW 03:28:47 20° NNW 03:32:51 10° NNE
Cosmos 1943 4.5 03:25:33 14° SSE 03:29:37 33° ESE 03:34:38 10° NE
Cosmos 1709 Rocket 4.3 03:23:17 10° N 03:29:41 71° ENE 03:36:00 10° SSE
Cosmos 1300 2.9 03:29:20 34° S 03:30:54 69° E 03:34:45 10° NNE
Cosmos 1553 Rocket 3.9 03:28:02 26° SSW 03:31:46 86° WNW 03:37:55 10° N
Cosmos 2369 Rocket 2.1 03:28:03 10° NW 03:33:38 65° WSW 03:39:11 10° SSE
ATLAS 3B R/B 3.0 03:29:11 22° WSW 03:34:24 71° NW 03:41:39 10° NE
UNK 3.7 03:30:56 17° SSE 03:34:26 87° WSW 03:39:05 10° NNW
Cosmos 1437 Rocket 4.4 03:33:23 21° W 03:34:29 23° WNW 03:37:50 10° N
SAR-Lupe-3 4.4 03:35:33 32° S 03:37:03 80° WSW 03:40:38 10° NNW
Cosmos 1302 Rocket 4.0 03:32:44 10° NNW 03:38:03 88° WSW 03:43:18 10° SSE
Cosmos 1048 Rocket 4.0 03:35:33 30° SSW 03:38:19 83° WNW 03:43:43 10° NNE
NPP 3.7 03:33:10 10° NNE 03:38:33 66° WNW 03:41:26 28° SW
Spot 4 Rocket 4.1 03:34:47 10° NNE 03:39:59 78° ESE 03:43:21 22° S
IRS-1D 4.0 03:35:10 10° NNE 03:40:17 58° ESE 03:44:24 16° S
Cosmos 1455 4.1 03:40:53 10° SSE 03:44:15 28° E 03:47:37 10° NNE
ADEOS 3.5 03:40:14 10° NNE 03:45:30 89° ESE 03:48:52 23° SSW
COSMOS 2455 3.6 03:41:27 17° W 03:45:47 45° NNW 03:51:35 10° NE
Cosmos 1733 Rocket 3.6 03:43:10 10° N 03:47:31 59° ENE 03:51:51 10° SSE
Cosmos 2219 Rocket 3.7 03:45:01 12° W 03:49:24 27° NNW 03:54:12 10° NNE
Cosmos 1271 Rocket 2.7 03:49:06 30° SSW 03:51:00 77° WNW 03:55:04 10° NNE
ARIANE 5 R/B 2.7 03:46:40 10° NNE 03:51:56 74° ESE 03:56:01 17° S
Cosmos 1867 3.6 03:49:31 25° SW 03:52:46 81° NW 03:58:19 10° NE
Cosmos 1340 Rocket 3.6 03:49:52 10° NNW 03:53:29 32° W 03:54:20 29° WSW
Cosmos 1331 Rocket 4.3 03:48:36 10° NW 03:53:37 47° WSW 03:57:49 15° S
Cosmos 1707 Rocket 3.6 03:54:15 22° SSW 03:57:07 88° W 04:01:38 10° NNE
Cosmos 1269 Rocket 4.3 03:54:24 24° SW 03:57:27 55° NW 04:02:40 10° NNE
Cosmos 1184 Rocket 3.5 03:54:33 10° N 03:57:59 57° ENE 04:01:21 10° SSE
Meteor 1-4 Rocket 2.8 03:57:08 33° SW 03:58:20 49° WNW 04:01:46 10° N
Resurs 1-4 Rocket 2.3 03:54:44 10° NNE 04:00:01 70° ESE 04:04:41 13° S
SL-16 R/B 2.8 03:56:32 20° WSW 04:00:11 47° NW 04:05:43 10° NNE
Cosmos 1943 Rocket 2.1 03:54:33 10° NW 04:00:17 84° WSW 04:05:57 10° SSE
Cosmos 2333 Rocket 3.7 03:57:47 12° W 04:02:25 29° NNW 04:07:26 10° NNE
Cosmos 1151 Rocket 3.9 04:02:53 23° WSW 04:04:50 34° WNW 04:08:53 10° N
Cosmos 1607 4.0 04:01:01 21° WSW 04:05:20 72° NW 04:11:31 10° NE
Cosmos 2263 4.3 03:59:44 10° NW 04:05:23 54° WSW 04:10:59 10° S
Cosmos 2237 Rocket 3.6 04:01:32 12° W 04:06:01 29° NW 04:11:00 10° NNE
ERBS 2.7 04:04:54 29° SW 04:06:24 54° SSE 04:09:52 10° ENE
ERS-2 2.1 04:04:27 10° NNE 04:08:11 73° WNW 04:10:22 23° SSW
Okean O Rocket 3.1 04:09:17 10° NNE 04:13:26 36° E 04:17:33 10° SSE
Cosmos 1408 4.0 04:09:59 10° N 04:13:33 41° ENE 04:17:07 10° SE
Aureole 2 Rocket 4.4 04:11:48 16° W 04:14:12 26° NW 04:17:52 10° NNE
SeaSat 1 2.5 04:09:46 10° SSE 04:14:38 58° WSW 04:19:32 10° NW
USA 234 3.7 04:08:22 10° ENE 04:14:44 50° SE 04:19:56 16° SW
Cosmos 1825 3.4 04:11:19 10° N 04:14:59 44° ENE 04:18:38 10° SE
Cosmos 1908 Rocket 4.4 04:10:55 10° N 04:15:17 54° ENE 04:19:34 10° SSE
USA 161 3.6 04:16:54 11° WNW 04:16:54 11° WNW 04:17:04 10° NW
Cosmos 1862 4.2 04:13:13 10° N 04:17:08 51° ENE 04:21:01 10° SSE
IRAS Rocket 4.5 04:13:24 10° NNE 04:18:57 60° WNW 04:23:18 17° SW
Cosmos 883 Rocket 4.4 04:14:35 13° SSW 04:20:04 75° WNW 04:26:15 10° N
Pageos (A) 4.1 04:17:44 10° N 04:20:11 45° ENE 04:22:14 10° SSE
Meteor 1-27 4.2 04:15:53 16° SSW 04:20:24 70° WNW 04:26:01 10° N
Cosmos 158 Rocket 4.0 04:18:49 19° SW 04:22:25 63° WNW 04:27:23 10° NNE
Cosmos 2285 Rocket 4.1 04:17:03 10° NNW 04:23:33 85° ENE 04:29:59 10° SSE
UNKNOWN OBJECT B 2.7 04:20:02 10° NNE 04:23:46 79° ESE 04:27:12 12° SSW
CZ-2D R/B 4.0 04:19:55 10° NNE 04:24:22 65° ESE 04:28:42 10° S
USA 238 DEB 4.0 04:19:41 16° WSW 04:25:36 70° NNW 04:32:41 10° NE
USA 238 3.9 04:19:48 16° WSW 04:25:42 70° NNW 04:32:46 10° NE
Sich 1 Rocket 3.6 04:23:54 10° N 04:28:20 82° E 04:32:44 10° SSE
EO 1 Del DPAF 3.8 04:26:17 13° SSW 04:29:25 38° W 04:33:07 10° NNW
Thor Agena Rocket 3.8 04:24:26 10° SSE 04:29:35 74° ENE 04:34:51 10° NNW
Cosmos 2315 Rocket 4.0 04:24:45 10° SSW 04:31:01 84° WNW 04:37:22 10° N
Cosmos 2292 Rocket 3.4 04:28:36 10° NNW 04:31:19 33° W 04:33:07 17° SSW
Iridium 2 4.1 04:28:46 10° NNW 04:32:23 41° W 04:35:32 13° SSW
Cosmos 1656 Rocket 3.6 04:28:10 10° NNW 04:33:40 89° ENE 04:39:06 10° SSE
Cosmos 2251 Rocket 3.5 04:29:17 15° SW 04:33:43 75° WNW 04:39:00 10° NNE
Cosmos 1992 Rocket 4.0 04:29:24 10° NNW 04:34:41 89° SW 04:39:56 10° SSE
Cosmos 1869 3.6 04:32:03 10° S 04:36:00 70° E 04:39:59 10° NNE
CZ-4C R/B 2.6 04:31:42 15° WSW 04:36:35 67° NNW 04:43:08 10° NE
Lacrosse 4 Rocket 4.1 04:33:50 10° NW 04:36:42 16° N 04:39:33 10° NE
ATLAS 5 CENTAUR R/B 3.1 04:33:33 10° S 04:38:06 37° SE 04:43:01 10° ENE
Cosmos 1892 3.6 04:37:28 10° NNW 04:40:53 30° W 04:43:54 12° SSW
MOS 1-B 4.4 04:35:23 10° NNE 04:41:14 85° WNW 04:47:01 10° SSW
NOSS 3-2 (A) 3.7 04:35:51 14° SW 04:41:25 90° WNW 04:48:28 10° NE
Cosmos 1603 4.1 04:37:54 14° WSW 04:42:40 52° NW 04:48:19 10° NNE
CZ-2C R/B 3.8 04:47:29 10° S 04:51:50 53° W 04:56:12 10° NNW
Abrixas rocket 3.5 04:50:10 14° SW 04:52:16 25° S 04:55:04 10° SE
ARGOS Delta rocket 3.6 04:50:08 10° N 04:54:38 80° WNW 04:59:01 10° SSW
ATLAS CENTAUR R/B 3.3 04:54:15 10° W 04:55:41 11° WSW 04:56:06 11° WSW
Cosmos 2242 Rocket 4.1 04:51:33 10° SW 04:55:58 46° WNW 05:00:24 10° N
SL-16 R/B 3.5 04:51:23 10° SW 04:56:27 26° W 05:01:32 10° NW
NOSS 3-2 (C) 3.7 04:51:36 11° SW 04:57:44 88° NW 05:04:50 10° NE
Meteor 2-10 4.3 04:52:46 10° SSW 04:58:13 57° WNW 05:03:31 10° N
CENTAUR R/B 3.6 04:54:47 10° SSW 05:00:41 43° ESE 05:07:19 10° NE
Cosmos 1726 3.8 04:59:34 11° WSW 05:02:11 19° WNW 05:04:57 10° NNW
CZ-2D R/B 2.6 04:57:27 10° N 05:02:31 46° WNW 05:07:30 10° SW
Cosmos 1862 Rocket 3.6 05:01:35 10° SSW 05:05:55 65° WNW 05:10:20 10° N
Okean 2 Rocket 3.2 05:02:54 10° N 05:07:26 84° ENE 05:11:58 10° SSE
MOZ.5/SAFIR/RUBIN 5/SL-8 4.3 05:04:41 10° SSW 05:09:00 38° W 05:13:22 10° NNW
COSMOS 2406 4.2 05:04:57 10° S 05:10:27 48° ESE 05:15:58 10° NE
PSLV R/B 3.7 05:07:51 10° N 05:11:35 67° WNW 05:15:19 10° SSW
Cosmos 1943 3.4 05:07:48 10° SW 05:13:26 61° NW 05:19:03 10° NNE
Cosmos 494 Rocket 4.4 05:10:34 10° SW 05:15:42 51° NW 05:20:51 10° NNE
CZ-4B DEB 4.3 05:10:33 10° NNE 05:16:05 84° ESE 05:21:34 10° SSW
Cosmos 2369 Rocket 3.8 05:13:51 10° WNW 05:16:37 14° W 05:19:22 10° SW
Cosmos 1980 Rocket 4.4 05:11:40 10° NNW 05:16:39 29° NE 05:21:35 10° E
CZ-4B R/B 3.2 05:14:03 10° NNE 05:19:26 87° WNW 05:24:44 10° SSW
Cosmos 1455 3.0 05:16:18 10° SW 05:19:54 35° WNW 05:23:33 10° N
Nadezhda 1 Rocket 4.2 05:15:00 10° S 05:21:18 87° E 05:27:43 10° NNE
